Location: Arbon
(43.0005°N, 0.7472°E)
Time: 11:51:19
(UTC+00:00)

Cosmos 1733 Rocket - Pass Details

Date: 22 April 2026
Orbit: 597 x 619 km, 82.5° (Epoch: 15 May)

Event Time Altitude Azimuth Distance (km) Brightness Sun altitude
Rises 19:28:20 0° 180° (S) 2,861 6.2 -7.8°
Reaches altitude 10° 19:30:33 10° 177° (S) 1,965 5.4 -8.1°
Maximum altitude 19:34:52 67° 96° (E) 672 3.0 -8.8°
Drops below altitude 10° 19:39:14 10° 14° (NNE) 1,991 5.8 -9.5°
Sets 19:41:29 0° 11° (NNE) 2,904 6.7 -9.9°
